| time (UTC) | temp C | wind direction | speed KPH | gust KPH | rain 1hr cm | rain 24hr cm | rain mn cm | humidity % | barometer mb |
| 20260905060009 | 15 | 228 | 3.2 | 9.7 | 0.10 | 0.15 | 0.15 | 89 | 1015.8 |
| 20260905054005 | 15 | 223 | 8.0 | 11.3 | 0.15 | 0.15 | 0.15 | 89 | 1015.6 |
| 20260905053005 | 15 | 208 | 6.4 | 9.7 | 0.10 | 0.10 | 0.10 | 88 | 1015.3 |
| 20260905052007 | 15 | 261 | 6.4 | 14.5 | 0.08 | 0.08 | 0.08 | 87 | 1015.3 |
| 20260905051005 | 15 | 326 | 9.7 | 19.3 | 0.05 | 0.05 | 0.05 | 86 | 1015.6 |
| 20260905050010 | 15 | 284 | 8.0 | 14.5 | 0.05 | 0.05 | 0.05 | 86 | 1015.5 |
| 20260905045005 | 16 | 290 | 9.7 | 17.7 | 0.03 | 0.03 | 0.03 | 84 | 1015.3 |
| 20260905044008 | 16 | 325 | 8.0 | 20.9 | 0.00 | 0.00 | 0.00 | 84 | 1014.8 |
| 20260905042009 | 16 | 291 | 1.6 | 4.8 | 0.00 | 0.00 | 0.00 | 85 | 1014.7 |
| 20260905040010 | 16 | 291 | 4.8 | 9.7 | 0.00 | 0.00 | 0.00 | 83 | 1014.6 |
| 20260905035005 | 16 | 266 | 6.4 | 14.5 | 0.00 | 0.00 | 0.00 | 82 | 1014.6 |
| 20260905034006 | 16 | 291 | 4.8 | 6.4 | 0.00 | 0.00 | 0.00 | 86 | 1014.6 |
| 20260905033006 | 16 | 344 | 4.8 | 6.4 | 0.00 | 0.00 | 0.00 | 86 | 1014.3 |
| 20260905032005 | 16 | 324 | 3.2 | 6.4 | 0.00 | 0.00 | 0.00 | 83 | 1014.3 |
| 20260905031005 | 16 | 281 | 3.2 | 4.8 | 0.00 | 0.00 | 0.00 | 81 | 1013.7 |
| 20260905030008 | 16 | 281 | 6.4 | 12.9 | 0.00 | 0.00 | 0.00 | 80 | 1013.5 |
| 20260905025008 | 16 | 205 | 4.8 | 14.5 | 0.00 | 0.00 | 0.00 | 80 | 1013.5 |
| 20260905024005 | 17 | 233 | 4.8 | 8.0 | 0.00 | 0.00 | 0.00 | 79 | 1013.6 |
| 20260905023007 | 17 | 287 | 6.4 | 12.9 | 0.00 | 0.00 | 0.00 | 79 | 1013.8 |
| 20260905022005 | 17 | 296 | 6.4 | 17.7 | 0.00 | 0.00 | 0.00 | 79 | 1013.8 |
| 20260905021009 | 17 | 275 | 6.4 | 19.3 | 0.00 | 0.00 | 0.00 | 79 | 1013.8 |
| 20260905020010 | 17 | 337 | 8.0 | 17.7 | 0.00 | 0.00 | 0.00 | 76 | 1014.0 |
| 20260905015005 | 17 | 301 | 8.0 | 14.5 | 0.00 | 0.00 | 0.00 | 75 | 1013.9 |
| 20260905014007 | 17 | 315 | 11.3 | 24.1 | 0.00 | 0.00 | 0.00 | 74 | 1013.9 |
| 20260905012008 | 18 | 298 | 9.7 | 20.9 | 0.00 | 0.00 | 0.00 | 71 | 1013.2 |
| 20260905010008 | 18 | 316 | 12.9 | 24.1 | 0.00 | 0.00 | 0.00 | 69 | 1013.2 |
| 20260905005005 | 18 | 331 | 11.3 | 22.5 | 0.00 | 0.00 | 0.00 | 68 | 1013.2 |
| 20260905002006 | 18 | 331 | 11.3 | 19.3 | 0.00 | 0.00 | 0.00 | 68 | 1012.8 |
| 20260905001005 | 18 | 313 | 9.7 | 19.3 | 0.00 | 0.00 | 0.00 | 67 | 1012.8 |
| 20260904234005 | 18 | 327 | 12.9 | 22.5 | 0.00 | 0.00 | 0.00 | 66 | 1012.3 |
| 20260904233007 | 18 | 319 | 14.5 | 24.1 | 0.00 | 0.00 | 0.00 | 66 | 1012.3 |
| 20260904232005 | 18 | 314 | 11.3 | 22.5 | 0.00 | 0.00 | 0.00 | 65 | 1012.5 |
| 20260904231005 | 18 | 343 | 11.3 | 20.9 | 0.00 | 0.00 | 0.00 | 65 | 1012.4 |
| 20260904230011 | 19 | 336 | 19.3 | 29.0 | 0.00 | 0.00 | 0.00 | 64 | 1012.2 |
| 20260904225006 | 19 | 341 | 16.1 | 29.0 | 0.00 | 0.00 | 0.00 | 64 | 1012.3 |
| 20260904223005 | 20 | 321 | 11.3 | 25.7 | 0.00 | 0.00 | 0.00 | 66 | 1011.9 |
| 20260904222003 | 20 | 318 | 14.5 | 25.7 | 0.00 | 0.00 | 0.00 | 66 | 1011.4 |
| 20260904214005 | 22 | 321 | 17.7 | 29.0 | 0.00 | 0.00 | 0.00 | 63 | 1010.6 |
| 20260904213004 | 23 | 338 | 16.1 | 30.6 | 0.00 | 0.00 | 0.00 | 61 | 1010.3 |
| 20260904212005 | 23 | 223 | 12.9 | 24.1 | 0.00 | 0.00 | 0.00 | 58 | 1009.1 |
| 20260904210006 | 23 | 253 | 14.5 | 24.1 | 0.00 | 0.00 | 0.00 | 57 | 1009.2 |
| 20260904205003 | 23 | 223 | 12.9 | 24.1 | 0.00 | 0.00 | 0.00 | 57 | 1009.2 |
| 20260904204006 | 23 | 232 | 11.3 | 20.9 | 0.00 | 0.00 | 0.00 | 57 | 1009.2 |
| 20260904203006 | 23 | 244 | 8.0 | 17.7 | 0.00 | 0.00 | 0.00 | 59 | 1009.3 |
| 20260904201004 | 22 | 180 | 8.0 | 11.3 | 0.00 | 0.00 | 0.00 | 61 | 1009.2 |
| 20260904200007 | 23 | 180 | 8.0 | 14.5 | 0.00 | 0.00 | 0.00 | 59 | 1009.4 |
| 20260904195003 | 23 | 221 | 9.7 | 20.9 | 0.00 | 0.00 | 0.00 | 58 | 1009.4 |
| 20260904193005 | 23 | 169 | 8.0 | 17.7 | 0.00 | 0.00 | 0.00 | 59 | 1009.6 |
| 20260904192004 | 22 | 215 | 8.0 | 12.9 | 0.00 | 0.00 | 0.00 | 61 | 1009.6 |
| 20260904191003 | 22 | 208 | 8.0 | 11.3 | 0.00 | 0.00 | 0.00 | 63 | 1009.7 |
| 20260904190006 | 22 | 198 | 8.0 | 11.3 | 0.00 | 0.00 | 0.00 | 65 | 1009.8 |
| 20260904185005 | 21 | 187 | 8.0 | 9.7 | 0.00 | 0.00 | 0.00 | 68 | 1009.9 |
| 20260904184003 | 21 | 172 | 6.4 | 8.0 | 0.00 | 0.00 | 0.00 | 68 | 1010.1 |
| 20260904183003 | 22 | 199 | 4.8 | 8.0 | 0.00 | 0.00 | 0.00 | 65 | 1010.3 |
| 20260904182005 | 22 | 207 | 6.4 | 8.0 | 0.00 | 0.00 | 0.00 | 66 | 1010.4 |
| 20260904181004 | 22 | 236 | 4.8 | 6.4 | 0.00 | 0.00 | 0.00 | 66 | 1010.4 |
| 20260904180008 | 22 | 216 | 4.8 | 8.0 | 0.00 | 0.00 | 0.00 | 65 | 1010.2 |
| 20260904175004 | 22 | 223 | 4.8 | 8.0 | 0.00 | 0.00 | 0.00 | 65 | 1010.1 |
| 20260904174005 | 22 | 184 | 4.8 | 9.7 | 0.00 | 0.00 | 0.00 | 66 | 1010.0 |
| 20260904173004 | 22 | 170 | 4.8 | 6.4 | 0.00 | 0.00 | 0.00 | 64 | 1009.9 |
| 20260904172004 | 22 | 191 | 4.8 | 8.0 | 0.00 | 0.00 | 0.00 | 65 | 1009.8 |
| 20260904171004 | 22 | 179 | 6.4 | 8.0 | 0.00 | 0.00 | 0.00 | 64 | 1009.8 |
| 20260904170008 | 23 | 204 | 6.4 | 9.7 | 0.00 | 0.00 | 0.00 | 63 | 1009.9 |
| 20260904163005 | 23 | 189 | 4.8 | 8.0 | 0.00 | 0.00 | 0.00 | 61 | 1010.1 |
| 20260904162003 | 24 | 199 | 6.4 | 11.3 | 0.00 | 0.00 | 0.00 | 60 | 1010.2 |
| 20260904161008 | 25 | 237 | 6.4 | 11.3 | 0.00 | 0.00 | 0.00 | 57 | 1010.4 |
| 20260904155008 | 25 | 189 | 8.0 | 14.5 | 0.00 | 0.00 | 0.00 | 57 | 1010.5 |
| 20260904154008 | 25 | 240 | 9.7 | 16.1 | 0.00 | 0.00 | 0.00 | 55 | 1010.7 |
| 20260904151004 | 26 | 302 | 16.1 | 29.0 | 0.00 | 0.00 | 0.00 | 53 | 1011.3 |
| 20260904150010 | 26 | 275 | 16.1 | 27.4 | 0.00 | 0.00 | 0.00 | 53 | 1011.5 |
| 20260904145005 | 25 | 239 | 14.5 | 33.8 | 0.00 | 0.00 | 0.00 | 54 | 1011.7 |
| 20260904144008 | 26 | 263 | 17.7 | 30.6 | 0.00 | 0.00 | 0.00 | 54 | 1011.7 |
| 20260904143005 | 26 | 259 | 17.7 | 30.6 | 0.00 | 0.00 | 0.00 | 55 | 1011.7 |
| 20260904142008 | 26 | 266 | 20.9 | 40.2 | 0.00 | 0.00 | 0.00 | 54 | 1011.9 |
| 20260904141005 | 25 | 239 | 17.7 | 32.2 | 0.00 | 0.00 | 0.00 | 54 | 1011.9 |
| 20260904140007 | 25 | 193 | 17.7 | 30.6 | 0.00 | 0.00 | 0.00 | 55 | 1011.9 |
| 20260904132008 | 25 | 225 | 17.7 | 30.6 | 0.00 | 0.00 | 0.00 | 56 | 1012.6 |
| 20260904131005 | 24 | 257 | 16.1 | 29.0 | 0.00 | 0.00 | 0.00 | 58 | 1012.8 |
| 20260904124007 | 24 | 249 | 16.1 | 27.4 | 0.00 | 0.00 | 0.00 | 59 | 1013.2 |
| 20260904123005 | 24 | 234 | 17.7 | 32.2 | 0.00 | 0.00 | 0.00 | 59 | 1013.3 |
| 20260904122005 | 24 | 247 | 19.3 | 35.4 | 0.00 | 0.00 | 0.00 | 59 | 1013.6 |
| 20260904121004 | 25 | 236 | 22.5 | 40.2 | 0.00 | 0.00 | 0.00 | 58 | 1013.8 |
| 20260904120007 | 25 | 239 | 20.9 | 43.5 | 0.00 | 0.00 | 0.00 | 58 | 1013.8 |
| 20260904115004 | 25 | 201 | 19.3 | 45.1 | 0.00 | 0.00 | 0.00 | 57 | 1014.0 |
| 20260904114006 | 23 | 244 | 24.1 | 41.8 | 0.00 | 0.00 | 0.00 | 59 | 1014.2 |
| 20260904113004 | 23 | 242 | 20.9 | 45.1 | 0.00 | 0.00 | 0.00 | 59 | 1014.4 |
| 20260904112005 | 24 | 272 | 20.9 | 40.2 | 0.00 | 0.00 | 0.00 | 59 | 1014.4 |
| 20260904111004 | 24 | 239 | 19.3 | 35.4 | 0.00 | 0.00 | 0.00 | 59 | 1014.5 |
| 20260904110011 | 23 | 278 | 22.5 | 43.5 | 0.00 | 0.00 | 0.00 | 59 | 1014.6 |
| 20260904105004 | 24 | 238 | 22.5 | 37.0 | 0.00 | 0.00 | 0.00 | 59 | 1014.8 |
| 20260904104006 | 24 | 274 | 20.9 | 38.6 | 0.00 | 0.00 | 0.00 | 57 | 1014.8 |
| 20260904103005 | 23 | 289 | 24.1 | 43.5 | 0.00 | 0.00 | 0.00 | 58 | 1014.9 |
| 20260904102007 | 24 | 232 | 20.9 | 41.8 | 0.00 | 0.00 | 0.00 | 59 | 1015.1 |
| 20260904101005 | 25 | 260 | 16.1 | 33.8 | 0.00 | 0.00 | 0.00 | 57 | 1015.1 |
| 20260904100009 | 23 | 252 | 17.7 | 33.8 | 0.00 | 0.00 | 0.00 | 60 | 1015.3 |
| 20260904095004 | 24 | 257 | 17.7 | 32.2 | 0.00 | 0.00 | 0.00 | 59 | 1015.5 |
| 20260904094006 | 23 | 246 | 20.9 | 41.8 | 0.00 | 0.00 | 0.00 | 59 | 1015.6 |
| 20260904093004 | 23 | 215 | 17.7 | 29.0 | 0.00 | 0.00 | 0.00 | 61 | 1015.6 |
| 20260904092006 | 22 | 288 | 19.3 | 33.8 | 0.00 | 0.00 | 0.00 | 63 | 1015.8 |
| 20260904091004 | 22 | 213 | 16.1 | 29.0 | 0.00 | 0.00 | 0.00 | 63 | 1015.9 |
| 20260904090006 | 22 | 258 | 14.5 | 32.2 | 0.00 | 0.00 | 0.00 | 64 | 1016.1 |
| 20260904085007 | 21 | 207 | 17.7 | 27.4 | 0.00 | 0.00 | 0.00 | 65 | 1016.2 |
| 20260904084007 | 21 | 232 | 14.5 | 22.5 | 0.00 | 0.00 | 0.00 | 67 | 1016.0 |
| 20260904083004 | 20 | 238 | 14.5 | 27.4 | 0.00 | 0.00 | 0.00 | 69 | 1016.3 |
| 20260904082006 | 20 | 223 | 16.1 | 24.1 | 0.00 | 0.00 | 0.00 | 70 | 1016.4 |
| 20260904081004 | 20 | 240 | 11.3 | 24.1 | 0.00 | 0.00 | 0.00 | 71 | 1016.5 |
| 20260904080006 | 19 | 252 | 11.3 | 22.5 | 0.00 | 0.00 | 0.00 | 72 | 1016.6 |
| 20260904075006 | 19 | 206 | 9.7 | 17.7 | 0.00 | 0.00 | 0.00 | 73 | 1016.7 |
| 20260904073006 | 18 | 231 | 9.7 | 16.1 | 0.00 | 0.00 | 0.00 | 74 | 1016.6 |
| 20260904072004 | 18 | 218 | 11.3 | 20.9 | 0.00 | 0.00 | 0.00 | 74 | 1016.7 |
| 20260904070006 | 18 | 223 | 11.3 | 19.3 | 0.00 | 0.00 | 0.00 | 73 | 1016.6 |
| 20260904065005 | 18 | 192 | 9.7 | 16.1 | 0.00 | 0.00 | 0.00 | 75 | 1016.8 |
| 20260904064007 | 18 | 216 | 9.7 | 20.9 | 0.00 | 0.00 | 0.00 | 74 | 1016.7 |
| 20260904063005 | 18 | 234 | 8.0 | 14.5 | 0.00 | 0.00 | 0.00 | 75 | 1016.7 |
| 20260904062008 | 17 | 225 | 8.0 | 16.1 | 0.00 | 0.00 | 0.00 | 76 | 1016.6 |